Weather Roundup
Issued by NWS Springfield, MO

Home | Current Version | Previous Version | Text Only | Print | Product List | Glossary On
Versions: 1 2 3 4 5 6 7 8 9 10 11 12 13 14 15 16 17 18 19 20 21 22 23 24 25 26 27 28 29 30 31 32 33 34 35 36 37 38 39 40 41 42 43 44 45 46 47 48 49 50
000
NZUS99 KSGF 222307
HRRSGF

HOURLY WEATHER
NATIONAL WEATHER SERVICE SPRINGFIELD MO
600 PM CDT WED MAR 22 2017

......SGF CWA......

CITY           SKY/WX    TMP DP  RH WIND       PRES   REMARKS
SPRINGFIELD    CLOUDY    58  32  37 SE14      30.20S
JOPLIN         CLOUDY    56  35  45 E13G22    30.18F
WEST PLAINS    CLOUDY    58  30  34 E8        30.26F
ROLLA          SUNNY     52  24  33 E15       30.27F
OSAGE BEACH    MOSUNNY  N/A N/A N/A E12       30.26F
BRANSON        CLOUDY    54  36  50 E14       30.23F

......SURROUNDING SGF CWA......

CITY           SKY/WX    TMP DP  RH WIND       PRES   REMARKS
CHANUTE        CLOUDY    57  31  37 SE17      30.16S
PARSONS        CLOUDY    58  36  43 E8        30.16F
COFFEYVILLE    CLOUDY    59  39  47 E12       30.14F
EMPORIA        CLOUDY    56  31  38 E13       30.14F
GROVE OK       CLOUDY    59  43  55 E9        30.17S
ROGERS AR      CLOUDY    55  41  59 E14       30.19F
SILOAM SPRINGS CLOUDY    57  41  54 E9        30.15F
HARRISON AR    CLOUDY    54  37  52 E12       30.23S
NEAR YELLVILLE CLOUDY    57  30  35 SE10      30.21F

......KANSAS AND MISSOURI......

CITY           SKY/WX    TMP DP  RH WIND       PRES   REMARKS
KANSAS CTY INT CLOUDY    54  25  32 E20       30.23S
DOWNTOWN KC    CLOUDY    56  26  31 E12       30.21F
COLUMBIA       SUNNY     52  24  33 E15       30.29F
SEDALIA        MOSUNNY   55  24  30 E14       30.28R
ST JOSEPH      MOSUNNY   55  25  31 SE14      30.23S
ST LOUIS       PTSUNNY   51  17  26 E12       30.37F
SPIRIT OF STL  SUNNY     50  16  25 E9        30.36S
KIRKSVILLE     CLOUDY    46  19  34 E12       30.35F
WICHITA        CLOUDY    56  38  50 SE10      30.10F
TOPEKA         CLOUDY    56  29  35 E16       30.18S
OLATHE         CLOUDY    53  30  41 E16G23    30.20F

......TENNESSEE......

CITY           SKY/WX    TMP DP  RH WIND       PRES   REMARKS
MEMPHIS        PTSUNNY   63  32  31 NE12      30.26R
NASHVILLE      PTSUNNY   55  18  23 NE12      30.30R

......ARKANSAS.......

CITY           SKY/WX    TMP DP  RH WIND       PRES   REMARKS
FAYETTEVILLE   CLOUDY    59  45  59 E7        30.16F
FT SMITH       CLOUDY    61  44  53 E17       30.15F
LITTLE ROCK    PTSUNNY   61  45  55 E12       30.23S

......OKLAHOMA.......

CITY           SKY/WX    TMP DP  RH WIND       PRES   REMARKS
TULSA          CLOUDY    61  47  59 E13       30.11F
PONCA CITY     CLOUDY    65  46  50 SE14      30.08F
MCALESTER      CLOUDY    69  55  60 S8        30.11S
OKLAHOMA CITY  PTSUNNY   69  56  62 SE16      30.04F

......IOWA............

CITY           SKY/WX    TMP DP  RH WIND       PRES   REMARKS
DES MOINES     CLOUDY    45  23  42 E13       30.32F
QUAD CITIES    PTSUNNY   42  20  41 SE9       30.44S

......ILLINOIS........

CITY           SKY/WX    TMP DP  RH WIND       PRES   REMARKS
QUINCY         CLOUDY    46  10  23 E14       30.37F
CHICAGO        PTSUNNY   34  16  47 NE9       30.51S WCI  27




USA.gov is the U.S. government's official web portal to all federal, state and local government web resources and services.